Location: Croagnes
(43.9363°N, 5.3265°E)
Time: 17:02:51
(UTC+00:00)

IGS 5A - Pass Details

Date: 06 June 2020
Orbit: 584 x 588 km, 97.6° (Epoch: 06 July)

Event Time Altitude Azimuth Distance (km) Brightness Sun altitude
Exits shadow 20:29:39 14° 149° (SSE) 1,647 5.1 -10.6°
Maximum altitude 20:33:03 56° 74° (ENE) 702 3.7 -11.1°
Drops below altitude 10° 20:37:08 10° 356° (N) 1,924 6.9 -11.5°
Sets 20:39:20 0° 352° (N) 2,830 8.0 -11.8°
